User: anonymous   Login
Location: Unspecified
(0.0000°N, 0.0000°E)
Time: 20:15:14
(UTC+00:00)
Language:

STARLINK-35241 - Orbit

View from above orbital plane
View from above orbital plane
View from above satellite
View from above satellite

Ground track
Ground track

The orbit is defined by the following mean orbital elements,

1 65515U          26144.75252624 +.00000000 +00000-0 +44737-3 0 00003
2 65515  53.1620 277.8243 0001055  95.8769 264.2352 15.30202985    08
Epoch (UTC): 24 May 2026 18:03:38
Eccentricity: 0.0001055
inclination: 53.1620°
perigee height: 474 km
apogee height: 476 km
right ascension of ascending node: 277.8243°
argument of perigee: 95.8769°
revolutions per day: 15.30202985
mean anomaly at epoch: 264.2352°

The dashed part of the orbit path shows where the satellite is in the earth's shadow,  

DLR